GW1286 Weather Reports


time (UTC)temp
C
wind
direction
speed
KPH
gust
KPH
rain 1hr
cm
rain 24hr
cm
rain mn
cm
humidity
%
barometer
mb
20260510093532 7 0 0.0 1.6 0.00 1.17 0.00 94 1009.8
20260510093047 7 0 0.0 3.2 0.00 1.17 0.00 94 1009.6
20260510092534 7 0 0.0 3.2 0.00 1.17 0.00 93 1009.4
20260510092034 7 0 0.0 3.2 0.00 1.17 0.00 93 1009.3
20260510091551 7 0 0.0 3.2 0.00 1.17 0.00 93 1009.4
20260510091033 8 0 0.0 1.6 0.00 1.17 0.00 93 1009.3
20260510090531 8 0 0.0 1.6 0.00 1.17 0.00 93 1009.3
20260510090045 8 0 0.0 3.2 0.00 1.17 0.00 93 1009.3
20260510085531 8 0 0.0 4.8 0.00 1.27 0.00 93 1009.2
20260510085031 8 0 0.0 6.4 0.00 1.27 0.00 93 1009.2
20260510084546 8 297 1.6 8.0 0.00 1.27 0.00 93 1009.1
20260510084031 8 292 1.6 8.0 0.00 1.27 0.00 93 1009.1
20260510083532 8 300 3.2 8.0 0.00 1.27 0.00 93 1009.0
20260510083044 8 246 1.6 4.8 0.00 1.27 0.00 92 1008.9
20260510082531 8 246 0.0 4.8 0.00 1.27 0.00 92 1009.1
20260510082031 8 246 1.6 4.8 0.00 1.27 0.00 92 1009.1
20260510081548 8 277 1.6 4.8 0.00 1.27 0.00 93 1009.2
20260510081031 8 250 1.6 8.0 0.00 1.27 0.00 92 1009.3
20260510080532 8 231 1.6 8.0 0.00 1.27 0.00 92 1009.1
20260510080043 8 0 1.6 4.8 0.00 1.27 0.00 92 1009.2
20260510075531 9 238 0.0 4.8 0.00 1.37 0.00 92 1009.1
20260510075031 9 311 0.0 4.8 0.00 1.37 0.00 92 1009.2
20260510074545 9 311 1.6 4.8 0.00 1.37 0.00 92 1009.0
20260510074034 9 0 1.6 4.8 0.00 1.37 0.00 92 1009.2
20260510073532 9 313 0.0 4.8 0.00 1.37 0.00 92 1009.1
20260510073103 9 313 0.0 4.8 0.00 1.37 0.00 92 1009.3
20260510072531 9 313 1.6 4.8 0.00 1.37 0.00 92 1009.5
20260510072031 9 293 1.6 4.8 0.00 1.37 0.00 92 1009.4
20260510071556 9 294 1.6 4.8 0.00 1.37 0.00 92 1009.5
20260510071031 9 293 1.6 8.0 0.00 1.37 0.00 92 1009.5
20260510070530 9 213 3.2 8.0 0.00 1.37 0.00 92 1009.4
20260510070045 9 209 1.6 8.0 0.00 1.37 0.00 91 1009.6
20260510065534 10 0 0.0 4.8 0.00 1.37 0.00 91 1009.7
20260510065031 10 0 0.0 4.8 0.00 1.37 0.00 91 1009.9
20260510064553 10 202 0.0 3.2 0.00 1.37 0.00 90 1010.1
20260510064031 10 202 0.0 4.8 0.00 1.37 0.00 90 1010.2
20260510063531 10 0 0.0 9.7 0.00 1.37 0.00 90 1010.2
20260510063045 10 199 0.0 9.7 0.00 1.37 0.00 90 1010.3
20260510062531 10 199 3.2 14.5 0.00 1.37 0.00 90 1010.2
20260510062031 10 347 4.8 14.5 0.00 1.37 0.00 91 1010.5
20260510061546 10 151 1.6 8.0 0.00 1.37 0.00 92 1010.8
20260510061032 10 360 3.2 9.7 0.00 1.37 0.00 92 1010.7
20260510060532 9 169 1.6 9.7 0.00 1.37 0.00 92 1010.6
20260510060045 9 146 1.6 6.4 0.00 1.37 0.00 92 1010.3
20260510055532 9 304 0.0 4.8 0.00 1.37 0.00 92 1010.3
20260510055034 9 0 1.6 4.8 0.00 1.37 0.00 92 1010.2
20260510054545 9 142 0.0 6.4 0.00 1.37 0.00 91 1010.2
20260510054035 9 142 1.6 6.4 0.00 1.37 0.00 91 1010.2
20260510053531 9 202 0.0 4.8 0.00 1.37 0.00 91 1010.1
20260510053045 9 0 1.6 6.4 0.00 1.37 0.00 90 1010.0
20260510052533 9 207 0.0 6.4 0.00 1.37 0.00 90 1009.9
20260510052031 10 196 1.6 6.4 0.00 1.37 0.00 90 1009.7
20260510051545 10 0 0.0 3.2 0.00 1.37 0.00 90 1009.7
20260510051032 10 0 0.0 3.2 0.00 1.37 0.00 90 1009.8
20260510050535 10 0 0.0 6.4 0.00 1.37 0.00 89 1009.8
20260510050051 10 0 0.0 8.0 0.00 1.37 0.00 89 1009.7
20260510045533 10 209 1.6 8.0 0.00 1.37 0.00 89 1009.7
20260510045035 10 0 0.0 3.2 0.00 1.37 0.00 89 1009.6
20260510044551 10 0 0.0 16.1 0.00 1.37 0.00 89 1009.6
20260510044032 10 0 3.2 16.1 0.00 1.37 0.00 89 1009.7
20260510043532 10 206 4.8 16.1 0.00 1.37 0.00 90 1009.6
20260510043048 10 251 1.6 8.0 0.00 1.37 0.00 89 1009.5
20260510042531 10 325 0.0 6.4 0.00 1.37 0.00 89 1009.6
20260510042031 10 213 0.0 8.0 0.00 1.37 0.00 88 1009.6
20260510041543 10 258 3.2 11.3 0.00 1.37 0.00 88 1009.5
20260510041032 10 227 3.2 14.5 0.00 1.37 0.00 88 1009.5
20260510040532 10 250 3.2 14.5 0.00 1.37 0.00 88 1009.6
20260510040049 10 0 6.4 22.5 0.00 1.37 0.00 88 1009.7
20260510035531 10 308 8.0 22.5 0.00 1.37 1.37 88 1009.6
20260510035031 10 200 8.0 16.1 0.00 1.37 1.37 89 1009.5
20260510034542 10 205 3.2 17.7 0.00 1.37 1.37 89 1009.4
20260510034033 10 258 4.8 17.7 0.00 1.37 1.37 89 1009.4
20260510033531 10 254 6.4 17.7 0.00 1.37 1.37 90 1009.4
20260510033052 10 203 9.7 17.7 0.00 1.37 1.37 90 1009.3
20260510032534 10 194 4.8 17.7 0.00 1.37 1.37 90 1009.2
20260510032034 10 242 3.2 17.7 0.00 1.37 1.37 90 1009.3
20260510031553 10 234 4.8 12.9 0.00 1.37 1.37 91 1009.4
20260510031031 10 240 1.6 9.7 0.00 1.37 1.37 91 1009.4
20260510030531 10 237 4.8 11.3 0.00 1.37 1.37 91 1009.5
20260510030044 10 283 1.6 14.5 0.00 1.37 1.37 91 1009.5
20260510025534 10 215 4.8 14.5 0.00 1.37 1.37 91 1009.3
20260510025035 10 284 4.8 14.5 0.00 1.37 1.37 91 1009.3
20260510024545 9 203 3.2 14.5 0.00 1.37 1.37 92 1009.2
20260510024033 9 252 1.6 8.0 0.00 1.37 1.37 92 1009.1
20260510023531 9 176 1.6 8.0 0.00 1.37 1.37 92 1009.1
20260510023049 9 218 3.2 6.4 0.00 1.37 1.37 92 1009.1
20260510022533 9 169 1.6 4.8 0.00 1.37 1.37 92 1009.2
20260510022032 9 263 0.0 8.0 0.00 1.37 1.37 92 1009.2
20260510021545 9 0 1.6 8.0 0.00 1.37 1.37 92 1009.3
20260510021031 9 316 1.6 4.8 0.00 1.37 1.37 91 1009.3
20260510020532 9 0 1.6 9.7 0.00 1.37 1.37 91 1009.2
20260510020050 9 298 1.6 9.7 0.00 1.37 1.37 91 1009.1
20260510015532 9 281 1.6 9.7 0.00 1.37 1.37 91 1009.0
20260510015035 9 0 1.6 6.4 0.00 1.37 1.37 91 1009.1
20260510014550 10 299 1.6 16.1 0.00 1.37 1.37 91 1009.0
20260510014034 10 200 0.0 16.1 0.00 1.37 1.37 91 1008.9
20260510013532 10 256 3.2 6.4 0.00 1.37 1.37 91 1008.9
20260510013047 10 284 1.6 8.0 0.00 1.37 1.37 91 1008.9
20260510012532 10 283 1.6 8.0 0.00 1.37 1.37 90 1009.0
20260510012031 10 342 1.6 8.0 0.00 1.37 1.37 90 1008.8
20260510011549 10 301 3.2 8.0 0.00 1.37 1.37 90 1008.8
20260510011031 10 241 1.6 6.4 0.00 1.37 1.37 90 1009.1
20260510010531 10 0 1.6 8.0 0.00 1.37 1.37 90 1009.0
20260510010048 10 236 3.2 8.0 0.00 1.37 1.37 91 1008.9
20260510005531 10 180 3.2 8.0 0.00 1.37 1.37 91 1008.9
20260510005032 10 0 0.0 8.0 0.00 1.37 1.37 91 1008.8
20260510004547 10 251 0.0 8.0 0.00 1.37 1.37 91 1008.8
20260510004033 10 221 1.6 8.0 0.00 1.37 1.37 91 1008.7
20260510003532 10 296 1.6 4.8 0.00 1.37 1.37 91 1008.7
20260510003049 10 246 0.0 4.8 0.00 1.37 1.37 90 1008.6
20260510002531 10 247 0.0 4.8 0.00 1.37 1.37 90 1008.6
20260510002031 10 238 1.6 4.8 0.00 1.37 1.37 90 1008.6
20260510001552 10 222 1.6 6.4 0.00 1.37 1.37 90 1008.6
20260510001032 10 195 1.6 6.4 0.00 1.37 1.37 89 1008.4
20260510000531 10 229 0.0 8.0 0.00 1.37 1.37 89 1008.3
20260510000044 10 188 0.0 8.0 0.00 1.37 1.37 88 1008.3
20260509235532 10 210 1.6 12.9 0.00 1.37 1.37 88 1008.3
20260509235031 10 185 1.6 14.5 0.00 1.37 1.37 88 1008.1
20260509234547 10 218 3.2 14.5 0.00 1.37 1.37 88 1008.1
20260509234031 10 161 1.6 11.3 0.00 1.37 1.37 88 1008.0
20260509233531 10 228 1.6 12.9 0.00 1.37 1.37 88 1008.0
20260509233052 10 215 3.2 12.9 0.00 1.37 1.37 88 1008.0
20260509232531 10 257 3.2 9.7 0.00 1.37 1.37 88 1008.0
20260509232032 10 213 3.2 9.7 0.00 1.37 1.37 87 1007.9
20260509231546 10 0 3.2 9.7 0.00 1.37 1.37 87 1007.7
20260509231031 10 227 1.6 12.9 0.00 1.37 1.37 87 1007.7
20260509230532 11 174 3.2 12.9 0.00 1.37 1.37 87 1007.6
20260509230041 10 231 6.4 12.9 0.00 1.37 1.37 87 1007.6
20260509225531 10 221 1.6 16.1 0.00 1.37 1.37 87 1007.7
20260509225033 10 167 3.2 16.1 0.00 1.37 1.37 87 1007.8
20260509224554 10 207 6.4 16.1 0.00 1.37 1.37 86 1007.7
20260509224031 10 248 6.4 25.7 0.00 1.37 1.37 87 1007.7
20260509223532 10 197 6.4 25.7 0.00 1.37 1.37 88 1007.7
20260509223050 10 219 4.8 14.5 0.00 1.37 1.37 89 1007.7
20260509222531 10 200 1.6 11.3 0.00 1.37 1.37 89 1007.8
20260509222035 10 250 1.6 12.9 0.00 1.37 1.37 89 1007.7
20260509221600 10 174 6.4 24.1 0.00 1.37 1.37 88 1007.7
20260509221031 10 190 8.0 24.1 0.00 1.37 1.37 88 1007.7
20260509220531 10 244 6.4 20.9 0.00 1.37 1.37 89 1007.8
20260509220045 10 162 8.0 20.9 0.00 1.37 1.37 89 1007.8
20260509215531 10 219 4.8 12.9 0.00 1.37 1.37 90 1007.9
20260509215030 10 167 3.2 12.9 0.00 1.37 1.37 91 1008.1
20260509214544 10 234 4.8 14.5 0.00 1.37 1.37 91 1008.2
20260509214035 10 237 4.8 14.5 0.00 1.37 1.37 91 1008.2
20260509213532 10 209 3.2 14.5 0.00 1.37 1.37 91 1008.1
20260509213042 10 240 3.2 12.9 0.00 1.37 1.37 90 1008.3
20260509212531 10 186 3.2 17.7 0.00 1.37 1.37 91 1008.2
20260509212033 10 215 8.0 17.7 0.00 1.37 1.37 90 1008.3
20260509211546 10 225 4.8 19.3 0.00 1.37 1.37 91 1008.3
20260509211031 10 205 8.0 19.3 0.00 1.37 1.37 91 1008.1
20260509210529 10 248 3.2 14.5 0.00 1.37 1.37 91 1008.2
20260509210054 10 252 4.8 14.5 0.00 1.37 1.37 91 1008.1
20260509205531 9 213 4.8 14.5 0.00 1.37 1.37 91 1008.3
20260509205031 9 197 4.8 14.5 0.00 1.37 1.37 91 1008.3
20260509204547 9 153 1.6 11.3 0.00 1.37 1.37 92 1008.3
20260509204031 9 217 1.6 11.3 0.00 1.37 1.37 92 1008.3
20260509203530 9 248 4.8 11.3 0.03 1.37 1.37 92 1008.6
20260509203052 9 223 4.8 11.3 0.03 1.37 1.37 92 1008.6
20260509202531 9 199 3.2 11.3 0.03 1.37 1.37 92 1008.6
20260509202033 9 286 1.6 16.1 0.03 1.37 1.37 92 1008.7
20260509201553 9 193 6.4 17.7 0.03 1.37 1.37 92 1008.7
20260509201031 9 211 4.8 17.7 0.03 1.37 1.37 92 1008.8
20260509200531 9 195 1.6 11.3 0.03 1.37 1.37 92 1008.8
20260509200056 9 161 3.2 11.3 0.05 1.37 1.37 92 1008.7
20260509195530 9 327 0.0 14.5 0.05 1.37 1.37 92 1008.8
20260509195032 9 198 4.8 14.5 0.08 1.37 1.37 92 1008.8
20260509194543 9 187 3.2 11.3 0.08 1.37 1.37 92 1008.9
20260509194031 9 220 3.2 16.1 0.05 1.32 1.32 92 1009.0
20260509193532 9 207 3.2 16.1 0.05 1.32 1.32 92 1009.0
20260509193049 9 260 4.8 16.1 0.08 1.32 1.32 93 1008.9
20260509192531 9 197 4.8 16.1 0.08 1.32 1.32 93 1009.0
20260509192032 9 162 1.6 11.3 0.08 1.32 1.32 93 1009.1
20260509191546 9 155 4.8 11.3 0.08 1.32 1.32 93 1009.1
20260509191035 9 188 4.8 12.9 0.08 1.32 1.32 93 1009.0
20260509190531 9 198 3.2 12.9 0.08 1.32 1.32 93 1009.1
20260509190051 9 194 4.8 11.3 0.05 1.32 1.32 93 1009.2
20260509185531 9 180 4.8 16.1 0.05 1.32 1.32 92 1009.2
20260509185032 9 246 6.4 16.1 0.03 1.30 1.30 92 1009.3
20260509184543 9 209 1.6 17.7 0.05 1.30 1.30 93 1009.2
20260509184030 9 216 4.8 17.7 0.05 1.30 1.30 92 1009.2
20260509183532 9 200 3.2 11.3 0.05 1.30 1.30 93 1009.3
20260509183045 9 216 4.8 14.5 0.05 1.27 1.27 93 1009.2
20260509182531 9 234 3.2 14.5 0.05 1.27 1.27 93 1009.3
20260509182031 9 237 6.4 14.5 0.05 1.27 1.27 93 1009.2
20260509181555 9 241 1.6 12.9 0.08 1.27 1.27 93 1009.2
20260509181033 9 212 4.8 19.3 0.08 1.27 1.27 93 1009.3
20260509180531 9 242 6.4 19.3 0.10 1.27 1.27 93 1009.2
20260509180055 9 140 4.8 17.7 0.13 1.27 1.27 94 1009.1
20260509175531 9 237 0.0 8.0 0.13 1.32 1.27 94 1009.1
20260509175032 9 205 1.6 19.3 0.15 1.32 1.27 94 1009.0
20260509174544 9 142 6.4 19.3 0.13 1.32 1.24 94 1009.0
20260509174031 9 217 3.2 9.7 0.13 1.32 1.24 94 1009.1
20260509173532 9 240 1.6 6.4 0.13 1.32 1.24 94 1009.1
20260509173048 9 240 3.2 6.4 0.10 1.30 1.22 94 1009.1
20260509172532 9 268 0.0 4.8 0.13 1.30 1.22 94 1009.1
20260509172031 9 230 1.6 6.4 0.13 1.30 1.22 94 1009.2
20260509171548 9 241 1.6 8.0 0.10 1.27 1.19 94 1009.2
20260509171031 8 212 1.6 8.0 0.10 1.24 1.17 94 1009.2
20260509170533 8 204 3.2 9.7 0.10 1.24 1.17 94 1009.3
20260509170044 8 233 1.6 17.7 0.08 1.22 1.14 94 1009.4
20260509165532 8 234 6.4 17.7 0.10 1.27 1.14 94 1009.4
20260509165031 8 215 3.2 11.3 0.10 1.24 1.12 95 1009.5
20260509164554 8 248 3.2 9.7 0.10 1.24 1.12 95 1009.5
20260509164030 8 251 0.0 9.7 0.13 1.24 1.12 95 1009.6
20260509163534 8 210 3.2 9.7 0.13 1.24 1.12 95 1009.7
20260509163045 8 229 3.2 9.7 0.15 1.24 1.12 95 1009.8
20260509162532 8 211 1.6 8.0 0.13 1.22 1.09 95 1009.8
20260509162031 8 246 0.0 8.0 0.15 1.22 1.09 95 1009.8
20260509161555 8 254 1.6 6.4 0.15 1.22 1.09 95 1009.9
20260509161030 8 201 1.6 9.7 0.15 1.19 1.07 95 1010.0
20260509160531 8 0 1.6 9.7 0.15 1.19 1.07 95 1010.0
20260509160044 8 199 3.2 9.7 0.13 1.17 1.04 95 1010.1
20260509155530 8 0 0.0 4.8 0.15 1.19 1.04 95 1010.2
20260509155031 8 284 0.0 4.8 0.13 1.17 1.02 95 1010.3
20260509154548 8 242 1.6 8.0 0.15 1.17 1.02 95 1010.3
20260509154029 8 198 0.0 9.7 0.13 1.14 0.99 95 1010.4
20260509153532 8 206 3.2 9.7 0.15 1.14 0.99 95 1010.4
20260509153047 7 200 3.2 8.0 0.13 1.12 0.97 95 1010.5
20260509152531 7 220 0.0 4.8 0.15 1.12 0.97 95 1010.6
20260509152031 7 0 0.0 3.2 0.13 1.09 0.94 95 1010.7
20260509151547 7 0 0.0 4.8 0.15 1.09 0.94 95 1010.6
20260509151031 7 0 0.0 4.8 0.13 1.07 0.91 95 1010.7
20260509150531 7 0 0.0 4.8 0.15 1.07 0.91 95 1010.8
20260509150049 7 255 0.0 4.8 0.18 1.07 0.91 95 1010.8
20260509145531 6 255 0.0 4.8 0.15 1.04 0.89 95 1010.7
20260509145032 6 255 1.6 3.2 0.18 1.04 0.89 95 1010.8
20260509144545 6 0 0.0 3.2 0.18 1.02 0.86 95 1010.8
20260509144031 6 0 0.0 3.2 0.18 1.02 0.86 95 1010.8
20260509143531 6 0 0.0 3.2 0.18 0.99 0.84 95 1010.8
20260509143044 6 0 0.0 3.2 0.18 0.99 0.84 95 1010.8
20260509142531 6 59 1.6 4.8 0.18 0.97 0.81 95 1010.8
20260509142033 5 344 0.0 4.8 0.18 0.97 0.81 95 1010.9
20260509141544 5 55 1.6 3.2 0.15 0.94 0.79 95 1010.8
20260509141034 5 0 0.0 3.2 0.13 0.91 0.76 95 1010.8
20260509140531 5 0 0.0 0.0 0.15 0.91 0.76 95 1010.8
20260509140051 5 0 0.0 1.6 0.13 0.89 0.74 95 1010.9
20260509135531 5 0 0.0 1.6 0.15 0.89 0.74 95 1010.7
20260509135034 5 0 0.0 1.6 0.13 0.86 0.71 95 1010.8
20260509134613 5 0 0.0 1.6 0.10 0.84 0.69 95 1010.8
20260509134030 5 0 0.0 3.2 0.13 0.84 0.69 95 1010.8
20260509133531 5 0 1.6 3.2 0.10 0.81 0.66 95 1010.8
20260509133043 5 53 0.0 3.2 0.10 0.81 0.66 95 1010.8
20260509132531 4 0 0.0 0.0 0.10 0.79 0.64 95 1010.8
20260509132031 4 0 0.0 0.0 0.10 0.79 0.64 95 1010.8
20260509131549 4 0 0.0 0.0 0.10 0.79 0.64 95 1010.8
20260509131032 4 0 0.0 0.0 0.10 0.79 0.64 95 1010.9
20260509130531 4 0 0.0 1.6 0.08 0.76 0.61 95 1010.8
20260509130044 4 0 0.0 1.6 0.08 0.76 0.61 95 1010.9
20260509125532 4 0 0.0 1.6 0.05 0.74 0.58 95 1010.9
20260509125031 4 0 0.0 1.6 0.05 0.74 0.58 95 1010.9
20260509124546 4 0 0.0 1.6 0.08 0.74 0.58 95 1010.9
20260509124031 3 0 0.0 1.6 0.08 0.71 0.56 95 1010.9
20260509123530 3 0 0.0 1.6 0.08 0.71 0.56 95 1010.9
20260509123047 3 0 0.0 0.0 0.08 0.71 0.56 95 1010.9
20260509122530 3 0 0.0 1.6 0.05 0.69 0.53 95 1011.0
20260509122031 3 0 0.0 1.6 0.05 0.69 0.53 95 1011.1
20260509121549 3 0 0.0 1.6 0.08 0.69 0.53 95 1011.0
20260509121031 3 53 0.0 1.6 0.10 0.69 0.53 95 1011.0
20260509120531 3 0 0.0 3.2 0.10 0.69 0.53 95 1011.0
20260509120044 3 0 0.0 3.2 0.13 0.69 0.53 95 1011.2
20260509115530 3 0 0.0 1.6 0.13 0.69 0.53 95 1011.2
20260509115031 3 0 0.0 1.6 0.13 0.66 0.51 95 1011.3
20260509114545 2 0 0.0 1.6 0.15 0.66 0.51 95 1011.2
20260509114030 2 0 0.0 3.2 0.15 0.64 0.48 95 1011.4
20260509113531 2 0 0.0 3.2 0.15 0.64 0.48 95 1011.4
20260509113053 2 0 0.0 3.2 0.18 0.64 0.48 95 1011.2
20260509112531 2 46 0.0 3.2 0.18 0.64 0.48 94 1011.2
20260509112031 2 0 0.0 1.6 0.18 0.61 0.46 94 1011.1
20260509111546 2 0 0.0 3.2 0.18 0.61 0.46 95 1011.2
20260509111032 2 0 0.0 3.2 0.18 0.58 0.43 95 1011.1
20260509110531 2 46 0.0 3.2 0.18 0.58 0.43 95 1011.1
20260509110047 2 46 0.0 1.6 0.15 0.56 0.41 94 1011.2
20260509105531 2 0 0.0 0.0 0.15 0.56 0.41 94 1011.2
20260509105032 2 0 0.0 1.6 0.13 0.53 0.38 94 1011.2
20260509104544 2 0 0.0 1.6 0.13 0.51 0.36 94 1011.1
20260509104030 2 0 0.0 1.6 0.10 0.48 0.33 94 1011.2
20260509103530 2 46 0.0 1.6 0.10 0.48 0.33 94 1011.3
20260509103042 2 0 0.0 1.6 0.08 0.46 0.30 94 1011.3
20260509102532 2 0 0.0 1.6 0.08 0.46 0.30 94 1011.1
20260509102032 2 0 0.0 1.6 0.05 0.43 0.28 94 1011.2
20260509101549 2 0 0.0 1.6 0.05 0.41 0.25 94 1011.2
20260509101030 2 0 0.0 1.6 0.05 0.41 0.25 94 1011.2
20260509100530 2 0 0.0 1.6 0.05 0.41 0.25 94 1011.2
20260509100048 2 0 0.0 1.6 0.05 0.41 0.25 94 1011.1
20260509095530 1 0 0.0 1.6 0.05 0.41 0.25 94 1011.2
20260509095031 1 0 0.0 1.6 0.05 0.41 0.25 94 1011.1
20260509094545 1 0 0.0 1.6 0.03 0.38 0.23 94 1011.2
20260509094032 1 0 0.0 1.6 0.05 0.38 0.23 94 1011.2